Volver al catálogo

THOR ABLESTAR DEB

ActivoLEO
NORAD 123·DEBRIS·🇺🇸 United States

Lanzado Jun 29, 1961 desde Cape Canaveral Space Force Station

Loading…

Próximos Pases (próximas 24 horas)

TLE

ActualizadoSource: Space-Track

Época: Sep 14, 2026, 04:38 UTC

1 00123U 61015H   26257.19343193  .00000246  00000-0  97092-4 0  9997
2 00123  66.6860 190.4450 0112156 207.1124 152.4097 14.41782945392362

Sigue THOR ABLESTAR DEB en tiempo real con AllMySat

Download on the App Store